Portada
METAR-TAF:

METAR-TAF

Aeroports :

Charleville, Austràlia

latitud: 26-24-45S, longitud: 146-15-44E, altitud: 306 m

Observació

L'informe es va fer fa 31 minuts, a les 20:00 UTC
Vent 4 kt del Sud/Sud-Est
Temperatura 15°C
Humitat 23%
Pressió 1017 hPa
Visibilitat 10 km o més

METAR: YBCV 132000Z AUTO 16004KT 9999 // NCD 15/M06 Q1017

Hora: 06:31 (20:31 UTC)


TAF: manca

Observacions i pronòstics meteorològics de més de 4000 aeroports (METAR i TAF).

Les estacions disponibles són els punts grocs i vermells al mapa.

Posi el ratolí al punt desitjat per veure el nom de l'estació.

Feu clic per veure les observacions i els pronòstics meteorològics.

Per canviar el mapa: feu clic els botons verds amb una creu de color negre per apropar; al botó verd amb un guió per allunyar la imatge; o en les fletxes verdes per a mapes adjacents.


METAR-TAF: